Location: Basse Occidentale du Courleau
(48.3833°N, 4.8333°W)
Time: 19:27:41
(UTC+00:00)

Cosmos 44 - Pass Details

Date: 05 July 2020
Orbit: 587 x 775 km, 65.1° (Epoch: 05 August)

Event Time Altitude Azimuth Distance (km) Brightness Sun altitude
Exits shadow 23:43:37 42° 167° (SSE) 850 3.3 -18.4°
Maximum altitude 23:44:37 53° 122° (ESE) 740 3.2 -18.4°
Drops below altitude 10° 23:48:55 10° 46° (NE) 1,973 6.1 -18.5°
Sets 23:51:16 0° 41° (NE) 2,906 7.1 -18.6°
